[[{"header":{"parameterUnit":"m.s-1","parameterCategory":2,"la1":30.2992,"la2":30.254,"lo1":-89.0895,"lo2":-89.0443,"dy":0.0025,"dx":0.0025,"nx":19,"ny":19,"refTime":"2026-04-10T21:00:00:Z","depth":"0","parameterNumber":2,"parameterNumberName":"U-component_of_CURRENTS"},"data":[0,0,0,-0.1625,-0.1626,-0.1688,-0.1688,-0.1717,-0.1717,0,0,0,0,0,0,0,0,0,0,0,-0.1595,-0.1595,-0.1625,-0.1626,-0.1688,-0.1688,-0.1717,-0.1717,0,0,0,0,0,0,0,0,0,0,0,-0.1595,-0.1595,-0.1595,-0.1627,-0.1688,-0.1688,-0.1717,-0.1682,0,0,0,0,0,0,0,0,0,0,-0.1628,-0.1602,-0.1595,-0.1595,-0.1627,-0.1688,-0.1688,-0.168,-0.1684,-0.1676,0,-0.1686,0,-0.1707,-0.1718,-0.1719,0,0,0,-0.1621,-0.1599,-0.1625,-0.1595,-0.1628,-0.1688,-0.1659,-0.1683,-0.1686,-0.1681,-0.1686,-0.1688,-0.1708,-0.1719,-0.1719,-0.1727,-0.1727,0,0,-0.1618,-0.1596,-0.1623,-0.1627,-0.1642,-0.1657,-0.1661,-0.1685,-0.1682,-0.1687,-0.1689,-0.1708,-0.1719,-0.1719,-0.1727,-0.1727,0,0,0,-0.1612,-0.1594,-0.162,-0.1625,-0.1644,-0.1659,-0.1663,-0.168,-0.1692,-0.169,-0.1709,-0.1719,-0.1719,-0.1727,-0.1727,-0.173,0,0,0,-0.1609,-0.1591,-0.1618,-0.1605,-0.1644,-0.1669,-0.1657,-0.169,-0.1694,-0.1708,-0.1719,-0.1719,-0.1727,-0.1727,-0.173,-0.1727,0,0,0,-0.1592,-0.1589,-0.1598,-0.1604,-0.1635,-0.1669,-0.1682,-0.1692,-0.1706,-0.1719,-0.1719,-0.1727,-0.1727,-0.173,-0.1727,-0.1691,0,0,0,-0.1565,-0.1588,-0.1597,-0.1631,-0.1635,-0.1688,-0.1682,-0.1715,-0.1729,-0.1719,-0.1727,-0.1727,-0.173,-0.1727,-0.1692,-0.1563,-0.1549,0,0,-0.1585,-0.159,-0.1614,-0.1624,-0.1673,-0.1679,-0.1711,-0.1723,-0.172,-0.1714,-0.1715,-0.173,-0.1727,-0.1691,-0.1556,-0.1542,0,0,0,-0.1615,-0.1623,-0.1643,-0.1671,-0.1709,-0.1718,-0.1737,-0.1731,-0.1726,-0.1729,-0.1726,-0.1725,-0.1702,-0.1625,-0.1615,-0.1564,-0.1726,-0.1726,-0.1726,-0.1588,-0.1625,-0.1656,-0.1695,-0.172,-0.1744,-0.1744,-0.1733,-0.1738,-0.1728,-0.1725,-0.1697,-0.1616,-0.1606,-0.1557,-0.1724,-0.1724,-0.1724,-0.1724,-0.16,-0.1611,-0.165,-0.1691,-0.171,-0.1728,-0.1736,-0.1733,-0.1708,-0.172,-0.1697,-0.163,-0.1594,-0.1546,-0.1724,-0.1724,-0.1724,-0.1724,-0.1724,-0.1566,-0.1574,-0.1608,-0.1649,-0.1674,-0.1705,-0.1695,-0.1707,-0.17,-0.1689,-0.1581,-0.1579,-0.1535,-0.1671,-0.1671,-0.1671,-0.167,-0.167,-0.167,-0.1503,-0.1541,-0.1549,-0.1602,-0.1617,-0.1639,-0.1665,-0.1646,-0.159,-0.1564,-0.1563,-0.1507,-0.168,-0.1681,-0.1668,-0.1668,-0.1668,-0.1669,-0.1669,-0.1442,-0.1458,-0.1467,-0.1483,-0.1521,-0.1486,-0.1552,-0.1471,-0.1457,-0.1394,-0.1334,-0.1483,-0.1462,-0.1469,-0.1464,-0.1395,-0.1395,-0.1395,-0.1395,-0.1376,-0.1394,-0.1372,-0.1375,-0.1387,-0.1404,-0.1288,-0.1252,-0.1197,-0.1145,-0.1197,-0.1182,-0.1195,-0.116,-0.1173,-0.1164,-0.1021,-0.102,-0.102,-0.1316,-0.1325,-0.1275,-0.1295,-0.1312,-0.1276,-0.1118,-0.1007,-0.0965,-0.1007,-0.1154,-0.117,-0.1156,-0.1181,-0.1134,-0.1158,-0.1146,0,0]},{"header":{"parameterUnit":"m.s-1","parameterCategory":2,"la1":30.2992,"la2":30.254,"lo1":-89.0895,"lo2":-89.0443,"dy":0.0025,"dx":0.0025,"nx":19,"ny":19,"refTime":"2026-04-10T21:00:00:Z","depth":"0","parameterNumber":3,"parameterNumberName":"V-component_of_CURRENTS"},"data":[0,0,0,-0.0285,-0.0284,-0.0218,-0.0217,-0.0084,-0.0083,0,0,0,0,0,0,0,0,0,0,0,-0.0307,-0.0307,-0.0285,-0.0284,-0.0218,-0.0217,-0.0084,-0.0083,0,0,0,0,0,0,0,0,0,0,0,-0.0307,-0.0307,-0.0307,-0.0284,-0.0218,-0.0217,-0.0084,-0.0143,0,0,0,0,0,0,0,0,0,0,-0.0212,-0.0246,-0.0307,-0.0307,-0.0284,-0.0218,-0.0217,-0.0146,-0.0139,-0.0105,0,-0.0105,0,-0.0097,-0.0074,-0.0074,0,0,0,-0.0268,-0.0252,-0.0236,-0.0307,-0.0283,-0.0218,-0.0243,-0.0142,-0.0134,-0.0096,-0.0103,-0.0099,-0.0095,-0.0073,-0.0072,0.0023,0.0023,0,0,-0.0272,-0.0288,-0.0241,-0.0231,-0.0278,-0.0245,-0.0241,-0.0138,-0.0133,-0.0103,-0.0096,-0.0092,-0.0072,-0.0071,0.0023,0.0023,0,0,0,-0.0293,-0.0291,-0.0277,-0.0236,-0.0232,-0.0244,-0.0239,-0.0137,-0.0134,-0.0094,-0.0091,-0.0072,-0.007,0.0023,0.0023,-0.003,0,0,0,-0.0295,-0.0304,-0.0279,-0.0287,-0.0234,-0.0191,-0.0241,-0.0141,-0.0129,-0.0092,-0.0071,-0.0069,0.0023,0.0023,-0.0029,-0.0053,0,0,0,-0.0308,-0.0305,-0.0302,-0.0288,-0.0267,-0.0193,-0.0182,-0.0138,-0.0127,-0.0073,-0.0068,0.0022,0.0023,-0.0028,-0.0051,-0.0013,0,0,0,-0.0319,-0.0335,-0.0303,-0.0313,-0.0268,-0.0236,-0.0183,-0.0148,-0.0108,-0.0071,0.0023,0.0023,-0.0027,-0.0049,-0.0012,0.0048,0.005,0,0,-0.0349,-0.0338,-0.0345,-0.0315,-0.0308,-0.0243,-0.0214,-0.0141,-0.0089,-0.0005,-0.0003,-0.0029,-0.005,-0.0013,0.0059,0.0062,0,0,0,-0.0361,-0.0368,-0.0359,-0.0345,-0.0305,-0.0258,-0.0187,-0.0144,-0.0071,-0.0067,-0.001,-0.0021,0.0004,0.0042,0.0044,0.0165,0.0024,0.0024,0.0024,-0.0416,-0.0397,-0.0404,-0.0373,-0.0341,-0.0261,-0.0212,-0.0135,-0.0088,-0.0064,-0.0051,-0.0041,-0.0002,0.0001,0.0124,-0.0033,-0.0033,-0.0033,-0.0033,-0.0471,-0.0479,-0.0439,-0.0444,-0.0379,-0.0339,-0.0227,-0.0182,-0.0089,-0.0071,-0.0043,0.0001,-0.0,0.0131,-0.0037,-0.0036,-0.0036,-0.0035,-0.0035,-0.0515,-0.0517,-0.0516,-0.0508,-0.0467,-0.0389,-0.0318,-0.0237,-0.0139,-0.0112,-0.0018,-0.0017,0.009,-0.0084,-0.0084,-0.0084,-0.0084,-0.0084,-0.0084,-0.0564,-0.0561,-0.0588,-0.057,-0.0557,-0.0504,-0.0372,-0.0289,-0.0146,-0.0061,-0.0059,0.0118,-0.0055,-0.0062,-0.0083,-0.0084,-0.0084,-0.0084,-0.0084,-0.0622,-0.0624,-0.0664,-0.067,-0.0638,-0.0573,-0.0454,-0.0236,-0.0134,-0.004,0.0176,-0.0007,0.0028,0.0028,0.0024,0.0027,0.0027,0.0027,0.0027,-0.0661,-0.0665,-0.0719,-0.0734,-0.071,-0.0605,-0.0425,-0.0185,0.0116,0.0267,0.0289,0.0317,0.0307,0.036,0.0352,0.0356,0.0442,0.0443,0.0444,-0.0695,-0.071,-0.075,-0.0765,-0.0737,-0.0622,-0.0414,-0.0062,0.0352,0.0471,0.0445,0.0428,0.0476,0.0451,0.0538,0.0518,0.0526,0,0]}],[{"header":{"parameterUnit":"m.s-1","parameterCategory":2,"la1":30.2992,"la2":30.254,"lo1":-89.0895,"lo2":-89.0443,"dy":0.0025,"dx":0.0025,"nx":19,"ny":19,"refTime":"2026-04-10T21:00:00:Z","depth":"2","parameterNumber":2,"parameterNumberName":"U-component_of_CURRENTS"},"data":[0,0,0,-0.1389,-0.1391,-0.145,-0.1451,-0.1477,-0.1477,0,0,0,0,0,0,0,0,0,0,0,-0.1363,-0.1363,-0.1389,-0.1391,-0.145,-0.1451,-0.1477,-0.1477,0,0,0,0,0,0,0,0,0,0,0,-0.1363,-0.1363,-0.1364,-0.1391,-0.145,-0.1451,-0.1477,-0.1444,0,0,0,0,0,0,0,0,0,0,-0.1392,-0.1371,-0.1363,-0.1364,-0.1391,-0.145,-0.1451,-0.1442,-0.1446,-0.1437,0,-0.1446,0,-0.1465,-0.1478,-0.1478,0,0,0,-0.1388,-0.1368,-0.1391,-0.1364,-0.1392,-0.145,-0.1423,-0.1445,-0.1448,-0.144,-0.1447,-0.1449,-0.1466,-0.1478,-0.1478,-0.1485,-0.1485,0,0,-0.1385,-0.1367,-0.1388,-0.1393,-0.1407,-0.1421,-0.1425,-0.1447,-0.1446,-0.1447,-0.145,-0.1466,-0.1478,-0.1478,-0.1485,-0.1485,0,0,0,-0.1377,-0.1365,-0.1387,-0.1391,-0.1408,-0.1423,-0.1427,-0.1445,-0.1454,-0.145,-0.1466,-0.1478,-0.1478,-0.1485,-0.1485,-0.1495,0,0,0,-0.1375,-0.1361,-0.1386,-0.1375,-0.1408,-0.1433,-0.1424,-0.1452,-0.1456,-0.1466,-0.1478,-0.1479,-0.1485,-0.1485,-0.1495,-0.1494,0,0,0,-0.136,-0.136,-0.1368,-0.1374,-0.1403,-0.1434,-0.1444,-0.1454,-0.1466,-0.1478,-0.1479,-0.1485,-0.1485,-0.1495,-0.1494,-0.1461,0,0,0,-0.1339,-0.1357,-0.1367,-0.1394,-0.1403,-0.1448,-0.1444,-0.1476,-0.1489,-0.1478,-0.1485,-0.1485,-0.1495,-0.1493,-0.1461,-0.1332,-0.132,0,0,-0.1353,-0.1358,-0.1377,-0.1388,-0.1429,-0.1439,-0.1468,-0.1483,-0.1481,-0.1473,-0.1474,-0.1495,-0.1494,-0.1461,-0.1329,-0.1316,0,0,0,-0.1376,-0.1383,-0.1399,-0.1424,-0.1458,-0.1472,-0.1492,-0.1489,-0.149,-0.1489,-0.1491,-0.1489,-0.1468,-0.1391,-0.1382,-0.1484,-0.1484,-0.1484,-0.1484,-0.1354,-0.1384,-0.1409,-0.1442,-0.1466,-0.1494,-0.1498,-0.1493,-0.1499,-0.1496,-0.1495,-0.1473,-0.1392,-0.1383,-0.1494,-0.1494,-0.1494,-0.1494,-0.1494,-0.1359,-0.1366,-0.1403,-0.1437,-0.1461,-0.1482,-0.1495,-0.1498,-0.1482,-0.1494,-0.1473,-0.1403,-0.1373,-0.1495,-0.1495,-0.1495,-0.1495,-0.1495,-0.1495,-0.1328,-0.1333,-0.1366,-0.1402,-0.1433,-0.1468,-0.1464,-0.1482,-0.148,-0.1474,-0.1366,-0.1364,-0.1466,-0.1459,-0.1459,-0.1459,-0.1459,-0.1459,-0.1459,-0.1271,-0.1304,-0.1314,-0.1363,-0.1382,-0.1409,-0.1443,-0.1428,-0.1378,-0.1356,-0.1354,-0.1461,-0.1462,-0.1463,-0.1456,-0.1457,-0.1457,-0.1457,-0.1457,-0.121,-0.1229,-0.1236,-0.1255,-0.1294,-0.1261,-0.1332,-0.1259,-0.1249,-0.1188,-0.1272,-0.1277,-0.1253,-0.1259,-0.1254,-0.1194,-0.1194,-0.1194,-0.1194,-0.1151,-0.1168,-0.1149,-0.1153,-0.1163,-0.118,-0.1066,-0.1017,-0.1024,-0.1004,-0.1013,-0.0998,-0.1012,-0.0975,-0.0987,-0.0978,-0.0846,-0.0846,-0.0845,-0.1094,-0.1103,-0.1058,-0.1077,-0.1091,-0.1054,-0.0894,-0.074,-0.0709,-0.0836,-0.0995,-0.1163,-0.1164,-0.1177,-0.114,-0.1153,-0.1145,0,0]},{"header":{"parameterUnit":"m.s-1","parameterCategory":2,"la1":30.2992,"la2":30.254,"lo1":-89.0895,"lo2":-89.0443,"dy":0.0025,"dx":0.0025,"nx":19,"ny":19,"refTime":"2026-04-10T21:00:00:Z","depth":"2","parameterNumber":3,"parameterNumberName":"V-component_of_CURRENTS"},"data":[0,0,0,-0.0341,-0.034,-0.0284,-0.0284,-0.0165,-0.0164,0,0,0,0,0,0,0,0,0,0,0,-0.0359,-0.0359,-0.0341,-0.034,-0.0284,-0.0284,-0.0165,-0.0164,0,0,0,0,0,0,0,0,0,0,0,-0.0359,-0.0359,-0.0359,-0.034,-0.0284,-0.0284,-0.0165,-0.0215,0,0,0,0,0,0,0,0,0,0,-0.0274,-0.0304,-0.0359,-0.0359,-0.034,-0.0284,-0.0283,-0.0218,-0.0212,-0.0181,0,-0.0182,0,-0.0176,-0.0156,-0.0155,0,0,0,-0.0325,-0.031,-0.0296,-0.0359,-0.0339,-0.0284,-0.0305,-0.0215,-0.0208,-0.0173,-0.0181,-0.0176,-0.0174,-0.0155,-0.0155,-0.0069,-0.0069,0,0,-0.0328,-0.0342,-0.0301,-0.0292,-0.0336,-0.0307,-0.0304,-0.0211,-0.0207,-0.018,-0.0174,-0.0172,-0.0154,-0.0153,-0.0069,-0.0069,0,0,0,-0.0347,-0.0344,-0.0333,-0.0297,-0.0294,-0.0306,-0.0302,-0.0211,-0.0208,-0.0173,-0.0171,-0.0154,-0.0152,-0.0069,-0.0069,-0.0119,0,0,0,-0.0348,-0.0356,-0.0335,-0.0341,-0.0296,-0.0259,-0.0303,-0.0214,-0.0204,-0.0171,-0.0154,-0.0151,-0.0069,-0.0069,-0.0118,-0.0141,0,0,0,-0.0359,-0.0357,-0.0355,-0.0342,-0.0325,-0.026,-0.0252,-0.0212,-0.0203,-0.0155,-0.0151,-0.0069,-0.0069,-0.0117,-0.0139,-0.0104,0,0,0,-0.0368,-0.0386,-0.0355,-0.0369,-0.0326,-0.0303,-0.0252,-0.0223,-0.0188,-0.0153,-0.0069,-0.0069,-0.0117,-0.0138,-0.0103,-0.0051,-0.0049,0,0,-0.04,-0.039,-0.0398,-0.037,-0.037,-0.0309,-0.0287,-0.022,-0.0171,-0.0094,-0.0092,-0.0118,-0.0139,-0.0104,-0.0041,-0.0039,0,0,0,-0.0415,-0.0423,-0.0416,-0.0407,-0.0374,-0.0331,-0.0266,-0.0225,-0.0156,-0.0151,-0.01,-0.0111,-0.0087,-0.0055,-0.0053,-0.0068,-0.0068,-0.0068,-0.0068,-0.0468,-0.0453,-0.0465,-0.0439,-0.0412,-0.0339,-0.0294,-0.022,-0.0176,-0.0151,-0.0139,-0.013,-0.0096,-0.0094,-0.0122,-0.0122,-0.0122,-0.0123,-0.0123,-0.0525,-0.0535,-0.05,-0.051,-0.045,-0.0416,-0.031,-0.0267,-0.0178,-0.0159,-0.0133,-0.0094,-0.0096,-0.0126,-0.0126,-0.0125,-0.0125,-0.0125,-0.0124,-0.0566,-0.057,-0.0571,-0.0569,-0.0534,-0.0462,-0.0396,-0.0319,-0.0225,-0.02,-0.0113,-0.0111,-0.015,-0.0172,-0.0172,-0.0172,-0.0172,-0.0172,-0.0172,-0.0611,-0.0611,-0.0638,-0.0627,-0.0617,-0.0569,-0.0447,-0.0369,-0.0234,-0.0154,-0.0152,-0.0145,-0.0144,-0.0151,-0.0171,-0.0171,-0.0172,-0.0172,-0.0172,-0.0666,-0.0667,-0.071,-0.0718,-0.0693,-0.0635,-0.0525,-0.0324,-0.0228,-0.014,-0.0103,-0.0105,-0.0073,-0.0073,-0.0076,-0.0076,-0.0076,-0.0076,-0.0076,-0.07,-0.0705,-0.076,-0.0778,-0.0761,-0.0665,-0.0502,-0.0291,-0.0116,-0.0041,-0.0043,-0.0038,-0.0042,-0.0008,-0.0009,-0.0011,0.0005,0.0005,0.0005,-0.0732,-0.0748,-0.0787,-0.0806,-0.0786,-0.0681,-0.0493,-0.0206,0.0012,0.0005,-0.0063,-0.0064,-0.0062,-0.0066,-0.0016,-0.0017,-0.0021,0,0]}],[{"header":{"parameterUnit":"m.s-1","parameterCategory":2,"la1":30.2992,"la2":30.254,"lo1":-89.0895,"lo2":-89.0443,"dy":0.0025,"dx":0.0025,"nx":19,"ny":19,"refTime":"2026-04-10T21:00:00:Z","depth":"4","parameterNumber":2,"parameterNumberName":"U-component_of_CURRENTS"},"data":[0,0,0,-0.0892,-0.0893,-0.0961,-0.0961,-0.1,-0.1,0,0,0,0,0,0,0,0,0,0,0,-0.0871,-0.0871,-0.0891,-0.0893,-0.0961,-0.0961,-0.1,-0.1,0,0,0,0,0,0,0,0,0,0,0,-0.087,-0.0871,-0.0872,-0.0893,-0.0961,-0.0961,-0.0999,-0.0961,0,0,0,0,0,0,0,0,0,0,-0.0901,-0.089,-0.0871,-0.0872,-0.0894,-0.096,-0.0961,-0.096,-0.0963,-0.0955,0,-0.0969,0,-0.0982,-0.1001,-0.1001,0,0,0,-0.0895,-0.0887,-0.0903,-0.0872,-0.0894,-0.096,-0.0931,-0.0962,-0.0966,-0.0959,-0.097,-0.0971,-0.0983,-0.1001,-0.1001,-0.1027,-0.1027,0,0,-0.0891,-0.0884,-0.09,-0.0905,-0.0916,-0.0929,-0.0933,-0.0965,-0.0971,-0.097,-0.0973,-0.0984,-0.1001,-0.1001,-0.1027,-0.1027,0,0,0,-0.0879,-0.0882,-0.0897,-0.0903,-0.0918,-0.093,-0.0935,-0.097,-0.0975,-0.0973,-0.0984,-0.1001,-0.1002,-0.1027,-0.1027,-0.1051,0,0,0,-0.0877,-0.0874,-0.0896,-0.0892,-0.0918,-0.0952,-0.094,-0.0973,-0.0977,-0.0984,-0.1001,-0.1002,-0.1027,-0.1027,-0.105,-0.1051,0,0,0,-0.0867,-0.0873,-0.0882,-0.0892,-0.092,-0.0952,-0.0959,-0.0974,-0.0983,-0.1001,-0.1002,-0.1027,-0.1027,-0.1049,-0.1049,-0.1029,0,0,0,-0.0856,-0.0868,-0.0882,-0.0902,-0.0919,-0.0957,-0.0959,-0.0994,-0.1012,-0.1002,-0.1027,-0.1027,-0.1049,-0.1049,-0.1028,-0.0891,0,0,0,-0.0861,-0.0868,-0.088,-0.0894,-0.0926,-0.0948,-0.0983,-0.1009,-0.1011,-0.1013,-0.1014,-0.1051,-0.1049,-0.1028,-0.0911,0,0,0,0,-0.0875,-0.0882,-0.0895,-0.0919,-0.095,-0.0981,-0.101,-0.1019,-0.1041,-0.1023,-0.105,-0.1049,-0.1035,-0.0954,-0.1029,-0.1029,-0.1029,-0.1029,-0.1029,-0.0862,-0.0882,-0.0903,-0.0933,-0.0962,-0.1008,-0.1029,-0.1045,-0.1052,-0.1065,-0.1069,-0.1069,-0.0987,-0.1074,-0.1074,-0.1075,-0.1075,-0.1075,-0.1075,-0.0853,-0.0855,-0.0901,-0.0929,-0.0972,-0.1009,-0.1048,-0.1064,-0.1077,-0.1086,-0.1071,-0.0986,-0.1077,-0.1077,-0.1076,-0.1076,-0.1076,-0.1076,-0.1076,-0.0822,-0.0824,-0.0861,-0.0905,-0.0959,-0.1013,-0.1031,-0.1072,-0.1086,-0.1091,-0.0983,-0.1072,-0.1067,-0.1083,-0.1083,-0.1083,-0.1083,-0.1082,-0.1082,-0.0762,-0.0797,-0.0817,-0.0876,-0.0911,-0.096,-0.1024,-0.1021,-0.1049,-0.0983,-0.1092,-0.1071,-0.1071,-0.1067,-0.1081,-0.1081,-0.1082,-0.1082,-0.1082,-0.0691,-0.0724,-0.0738,-0.0771,-0.0836,-0.0862,-0.0949,-0.0917,-0.0896,-0.0848,-0.0912,-0.092,-0.089,-0.0893,-0.0882,-0.0842,-0.084,-0.0838,0,-0.0636,-0.0655,-0.0661,-0.0682,-0.0702,-0.0788,-0.0743,-0.0761,-0.0773,-0.0747,-0.0887,-0.0959,-0.0964,-0.0932,-0.0933,-0.092,0,0,0,-0.0583,-0.0595,-0.0573,-0.0609,-0.063,-0.0649,-0.072,-0.0683,-0.0791,-0.0723,-0.0794,-0.0806,-0.0977,-0.1078,-0.1051,-0.105,-0.1041,0,0]},{"header":{"parameterUnit":"m.s-1","parameterCategory":2,"la1":30.2992,"la2":30.254,"lo1":-89.0895,"lo2":-89.0443,"dy":0.0025,"dx":0.0025,"nx":19,"ny":19,"refTime":"2026-04-10T21:00:00:Z","depth":"4","parameterNumber":3,"parameterNumberName":"V-component_of_CURRENTS"},"data":[0,0,0,-0.0292,-0.0292,-0.0277,-0.0276,-0.0209,-0.0209,0,0,0,0,0,0,0,0,0,0,0,-0.0297,-0.0297,-0.0292,-0.0292,-0.0277,-0.0276,-0.0209,-0.0209,0,0,0,0,0,0,0,0,0,0,0,-0.0297,-0.0297,-0.0297,-0.0292,-0.0277,-0.0276,-0.021,-0.023,0,0,0,0,0,0,0,0,0,0,-0.025,-0.0267,-0.0297,-0.0297,-0.0292,-0.0277,-0.0276,-0.0232,-0.0229,-0.0206,0,-0.0212,0,-0.0212,-0.0204,-0.0204,0,0,0,-0.0282,-0.027,-0.0266,-0.0297,-0.0292,-0.0277,-0.0281,-0.0231,-0.0227,-0.0202,-0.0211,-0.0209,-0.0211,-0.0204,-0.0203,-0.0149,-0.0149,0,0,-0.0282,-0.029,-0.0268,-0.0264,-0.0298,-0.0281,-0.028,-0.0229,-0.0229,-0.0211,-0.0207,-0.021,-0.0203,-0.0203,-0.0149,-0.0149,0,0,0,-0.0292,-0.0291,-0.0288,-0.0266,-0.027,-0.0281,-0.028,-0.0231,-0.0231,-0.0207,-0.0209,-0.0203,-0.0202,-0.015,-0.0149,-0.0195,0,0,0,-0.0292,-0.0297,-0.0289,-0.0293,-0.0271,-0.0257,-0.0283,-0.0234,-0.0229,-0.021,-0.0203,-0.0201,-0.015,-0.0149,-0.0194,-0.0214,0,0,0,-0.0296,-0.0297,-0.0299,-0.0293,-0.0291,-0.0258,-0.0255,-0.0233,-0.023,-0.0204,-0.0201,-0.015,-0.0149,-0.0193,-0.0212,-0.0184,0,0,0,-0.0298,-0.0319,-0.0299,-0.032,-0.0292,-0.0292,-0.0255,-0.0248,-0.0231,-0.0202,-0.015,-0.0149,-0.0193,-0.021,-0.0184,-0.0181,0,0,0,-0.0329,-0.0323,-0.0335,-0.0317,-0.0334,-0.0293,-0.0291,-0.0253,-0.0216,-0.0161,-0.016,-0.0194,-0.0212,-0.0184,-0.017,0,0,0,0,-0.0347,-0.0358,-0.0359,-0.0362,-0.0349,-0.0328,-0.029,-0.026,-0.0214,-0.0206,-0.0178,-0.0187,-0.0168,-0.0164,-0.0149,-0.0149,-0.0149,-0.0149,-0.0149,-0.0392,-0.0386,-0.0407,-0.0398,-0.0389,-0.0347,-0.032,-0.0266,-0.0234,-0.0217,-0.0212,-0.0207,-0.0205,-0.0197,-0.0197,-0.0198,-0.0198,-0.0198,-0.0198,-0.044,-0.0451,-0.0439,-0.0461,-0.0429,-0.0417,-0.0343,-0.0311,-0.0245,-0.023,-0.0209,-0.0199,-0.0202,-0.0201,-0.0201,-0.02,-0.02,-0.02,-0.0199,-0.0467,-0.0472,-0.0488,-0.0507,-0.0499,-0.0458,-0.0416,-0.036,-0.0287,-0.0269,-0.0225,-0.0219,-0.0227,-0.0248,-0.0248,-0.0248,-0.0248,-0.0248,-0.0248,-0.0485,-0.05,-0.0536,-0.0551,-0.056,-0.0539,-0.0459,-0.0401,-0.0325,-0.0267,-0.0272,-0.0223,-0.0221,-0.0228,-0.0248,-0.0248,-0.0248,-0.0248,-0.0248,-0.0513,-0.0525,-0.0576,-0.06,-0.0613,-0.0586,-0.0525,-0.039,-0.0324,-0.0254,-0.0245,-0.0246,-0.0219,-0.0217,-0.0223,-0.0242,-0.0242,-0.0242,0,-0.0527,-0.0538,-0.0602,-0.0637,-0.064,-0.0606,-0.0508,-0.0423,-0.0317,-0.0321,-0.0328,-0.0325,-0.0323,-0.03,-0.0298,-0.0309,0,0,0,-0.054,-0.0561,-0.0601,-0.0643,-0.0647,-0.0542,-0.0476,-0.0423,-0.0347,-0.026,-0.0242,-0.0242,-0.0269,-0.0247,-0.0205,-0.0203,-0.0211,0,0]}]]